CZ-4C DEB, 43265

Orbit data source: Space-Track

CZ-4C DEB, 43265 is space debris in SSO originally from a launch on Sat, 31 Mar 2018 UTC launched from the Taiyaun Space Center, China (TSC). Debris objects in space refer to the collection of defunct objects orbiting the Earth. Examples of debris include non-operational satellites, rocket bodies, and fragments generated from explosions, collisions, or faulty payload assembly.

Loading next visibility...
Identifier
43265, 2018-031G
Orbit
SSO
Last TLE update
14 hours ago
Origin
Manufacturer
Unknown
Mission
Spacecraft
Bus & Motor
Unknown
Mass
Unknown
Launch date (UTC)
2018-03-31 (7 years ago)
Launch vehicle
Unknown
Launch site
Taiyaun Space Center, China (TSC)
Object type
Payload
Rocket body
Debris
Shape & HBR
Unknown
Radar Cross Section
Large (>1 m²)

Expand to show TLE details & history

TLE from 14 hours ago
0 CZ-4C DEB
1 43265U 18031G   25200.83073930  .00006248  00000-0  54921-3 0  9999
2 43265  97.8059 279.3269 0002741 242.2308 117.8636 14.96900317394607
Epoch: 2025-07-19T19:56Z
TLE epoch observation values (Epoch: 2025-07-19T19:56:15.875Z)
Latitude
Longitude
42.39854°
Altitude
580.419 km
Speed
7.57 km/s
True Right ascension
18h 37m 18s
True Declination
0° 00' 00"
Sunlit
Object was in full shadow at epoch
Visualization orbit readout
Latitude
-58.71364°
Longitude
55.95338°
Altitude
598.23 km
Speed
7.56 km/s
Apparent Right ascension
14h 08m 07s
Apparent Declination
-68° 37' 58"
Sunlit
Object is in full shadow
Visualization observer readout
Local Sidereal Time
22:59:59
Azimuth
205.662° SW
Elevation
-52°
Doppler factor
1
Orbital elements
Apogee altitude
575.4 km
Perigee altitude
571.589 km
Semi-major axis
6,951.632 km
Eccentricity
0.00027
Inclination
97.8059°
RAAN
279.3269°
Arg. of periapsis
242.2308°
True anomaly
117.89136°
Mean anomaly
117.8636°
Eccentric anomaly
117.87748°
Mean motion
3.74467 °/min
Orbital period
96.14 mins
BSTAR
0.00054921
Loading maneuver chart data...
Loading SW <> Apogee altitude chart data...
Loading historical data...
Loading historical data...
Loading historical data...
Loading historical data...
Loading historical data...
Loading historical data...
Loading historical data...
|